DL2GFH-3 Weather Reports


time (UTC)temp
C
wind
direction
speed
KPH
gust
KPH
rain 1hr
cm
rain 24hr
cm
rain mn
cm
humidity
%
barometer
mb
20260506212349 16 0 0.0 0.0 0.00 0.00 0.00 41 1011.5
20260506210843 16 0 0.0 0.0 0.00 0.00 0.00 41 1011.3
20260506205338 16 0 0.0 0.0 0.00 0.00 0.00 41 1011.2
20260506203833 17 0 0.0 0.0 0.00 0.00 0.00 41 1010.8
20260506202327 17 0 0.0 0.0 0.00 0.00 0.00 41 1010.8
20260506200822 17 0 0.0 0.0 0.00 0.00 0.00 41 1010.7
20260506195316 17 0 0.0 0.0 0.00 0.00 0.00 40 1010.8
20260506193811 17 0 0.0 0.0 0.00 0.00 0.00 40 1010.6
20260506192306 17 0 0.0 0.0 0.00 0.00 0.00 41 1010.5
20260506190800 17 0 0.0 0.0 0.00 0.00 0.00 40 1010.4
20260506185255 17 0 0.0 0.0 0.00 0.00 0.00 41 1010.2
20260506183749 17 0 0.0 0.0 0.00 0.00 0.00 41 1010.0
20260506182244 17 0 0.0 0.0 0.00 0.00 0.00 40 1010.0
20260506180739 17 0 0.0 0.0 0.00 0.00 0.00 40 1009.8
20260506175233 17 0 0.0 0.0 0.00 0.00 0.00 40 1009.7
20260506173728 17 0 0.0 0.0 0.00 0.00 0.00 40 1009.6
20260506172222 18 0 0.0 0.0 0.00 0.00 0.00 40 1009.5
20260506170717 18 0 0.0 0.0 0.00 0.00 0.00 40 1009.2
20260506165211 18 0 0.0 0.0 0.00 0.00 0.00 40 1009.1
20260506163706 18 0 0.0 0.0 0.00 0.00 0.00 40 1008.9
20260506162201 18 0 0.0 0.0 0.00 0.00 0.00 39 1009.0
20260506160655 18 0 0.0 0.0 0.00 0.00 0.00 39 1009.1
20260506155150 18 0 0.0 0.0 0.00 0.00 0.00 39 1009.1
20260506153644 18 0 0.0 0.0 0.00 0.00 0.00 39 1009.1
20260506152139 18 0 0.0 0.0 0.00 0.00 0.00 39 1009.1
20260506150634 18 0 0.0 0.0 0.00 0.00 0.00 39 1008.9
20260506145128 18 0 0.0 0.0 0.00 0.00 0.00 39 1008.8
20260506143623 18 0 0.0 0.0 0.00 0.00 0.00 38 1008.8
20260506142117 19 0 0.0 0.0 0.00 0.00 0.00 38 1008.8
20260506140612 19 0 0.0 0.0 0.00 0.00 0.00 38 1008.7
20260506135106 19 0 0.0 0.0 0.00 0.00 0.00 37 1008.4
20260506133601 20 0 0.0 0.0 0.00 0.00 0.00 36 1008.2
20260506132056 20 0 0.0 0.0 0.00 0.00 0.00 35 1007.9
20260506130550 20 0 0.0 0.0 0.00 0.00 0.00 35 1007.7
20260506125045 21 0 0.0 0.0 0.00 0.00 0.00 34 1007.4
20260506123539 21 0 0.0 0.0 0.00 0.00 0.00 33 1007.3
20260506122034 21 0 0.0 0.0 0.00 0.00 0.00 32 1007.1
20260506120529 22 0 0.0 0.0 0.00 0.00 0.00 32 1007.0
20260506115023 21 0 0.0 0.0 0.00 0.00 0.00 32 1006.9
20260506112012 21 0 0.0 0.0 0.00 0.00 0.00 34 1007.0
20260506110507 21 0 0.0 0.0 0.00 0.00 0.00 34 1007.0
20260506105001 20 0 0.0 0.0 0.00 0.00 0.00 34 1007.1
20260506101951 20 0 0.0 0.0 0.00 0.00 0.00 35 1007.4
20260506100445 20 0 0.0 0.0 0.00 0.00 0.00 35 1007.5
20260506094940 20 0 0.0 0.0 0.00 0.00 0.00 34 1007.3
20260506093434 20 0 0.0 0.0 0.00 0.00 0.00 33 1007.3
20260506091929 21 0 0.0 0.0 0.00 0.00 0.00 32 1007.3
20260506090424 21 0 0.0 0.0 0.00 0.00 0.00 32 1007.3
20260506084918 22 0 0.0 0.0 0.00 0.00 0.00 31 1007.2
20260506083413 22 0 0.0 0.0 0.00 0.00 0.00 31 1007.1
20260506081907 22 0 0.0 0.0 0.00 0.00 0.00 30 1006.9
20260506080402 22 0 0.0 0.0 0.00 0.00 0.00 30 1007.1
20260506073351 23 0 0.0 0.0 0.00 0.00 0.00 29 1007.1
20260506071846 22 0 0.0 0.0 0.00 0.00 0.00 31 1007.2
20260506070340 22 0 0.0 0.0 0.00 0.00 0.00 31 1007.2
20260506061824 17 0 0.0 0.0 0.00 0.00 0.00 39 1007.3
20260506060319 17 0 0.0 0.0 0.00 0.00 0.00 39 1007.4
20260506050257 17 0 0.0 0.0 0.00 0.00 0.00 40 1007.7
20260506044751 17 0 0.0 0.0 0.00 0.00 0.00 39 1007.5
20260506043246 17 0 0.0 0.0 0.00 0.00 0.00 39 1007.7
20260506041741 18 0 0.0 0.0 0.00 0.00 0.00 38 1007.9
20260506040235 18 0 0.0 0.0 0.00 0.00 0.00 36 1007.9
20260506034730 20 0 0.0 0.0 0.00 0.00 0.00 35 1008.0
20260506033224 21 0 0.0 0.0 0.00 0.00 0.00 33 1008.0
20260506031719 22 0 0.0 0.0 0.00 0.00 0.00 31 1008.0
20260506030214 16 0 0.0 0.0 0.00 0.00 0.00 41 1008.3
20260506024708 16 0 0.0 0.0 0.00 0.00 0.00 41 1008.7
20260506023203 16 0 0.0 0.0 0.00 0.00 0.00 41 1008.6
20260506021657 17 0 0.0 0.0 0.00 0.00 0.00 41 1008.8
20260506020152 17 0 0.0 0.0 0.00 0.00 0.00 41 1008.9
20260506014647 17 0 0.0 0.0 0.00 0.00 0.00 41 1008.9
20260506013141 17 0 0.0 0.0 0.00 0.00 0.00 41 1008.9
20260506011636 17 0 0.0 0.0 0.00 0.00 0.00 41 1008.9
20260506010130 17 0 0.0 0.0 0.00 0.00 0.00 41 1009.3
20260506004625 17 0 0.0 0.0 0.00 0.00 0.00 41 1009.4
20260506003119 17 0 0.0 0.0 0.00 0.00 0.00 41 1009.4
20260506001614 17 0 0.0 0.0 0.00 0.00 0.00 41 1009.3
20260506000109 17 0 0.0 0.0 0.00 0.00 0.00 41 1009.2
20260505234603 17 0 0.0 0.0 0.00 0.00 0.00 41 1009.5
20260505233058 17 0 0.0 0.0 0.00 0.00 0.00 41 1009.7
20260505231552 17 0 0.0 0.0 0.00 0.00 0.00 41 1009.7
20260505230047 17 0 0.0 0.0 0.00 0.00 0.00 41 1009.9
20260505224542 17 0 0.0 0.0 0.00 0.00 0.00 41 1009.9
20260505223036 17 0 0.0 0.0 0.00 0.00 0.00 41 1009.9
20260505221531 17 0 0.0 0.0 0.00 0.00 0.00 41 1010.0
20260505220025 17 0 0.0 0.0 0.00 0.00 0.00 41 1010.1
20260505214520 18 0 0.0 0.0 0.00 0.00 0.00 41 1010.2
20260505213014 18 0 0.0 0.0 0.00 0.00 0.00 41 1010.2